Location: Unspecified
(45.4615°N, 74.0512°W)
Time: 07:49:09
(UTC-05:00)

CZ-3 Stage 3 - Visible Passes

Search period start: 16 December 2018 00:00
Search period end: 26 December 2018 00:00
Orbit: 393 x 34799 km, 30.3° (Epoch: 14 December)

Date Brightness Start Highest point End Pass type
(mag) Time Alt. Az. Time Alt. Az. Time Alt. Az.
16 Dec 10.9 19:04:36 10° WNW 20:14:57 14° WNW 22:02:08 10° WNW visible
17 Dec 8.0 14:22:17 10° WSW 16:37:41 54° WSW 23:20:04 10° SW visible
18 Dec 7.8 10:38:11 10° SSW 15:43:48 70° SSE 19:58:53 10° SSE visible
19 Dec 10.8 18:51:40 10° WNW 20:03:28 15° WNW 21:54:21 10° WNW visible
20 Dec 8.0 14:11:55 10° WSW 16:26:14 54° WSW 23:08:41 10° SW visible
21 Dec 7.9 10:27:55 10° SSW 15:32:06 70° SSE 19:48:27 10° SSE visible
22 Dec 10.8 18:38:59 10° WNW 19:51:58 15° WNW 21:46:05 10° WNW visible
23 Dec 8.1 14:01:33 10° WSW 16:14:44 55° WSW 22:57:14 10° SW visible
24 Dec 7.9 10:17:40 10° SSW 15:20:21 69° SSE 19:38:00 10° SSE visible
25 Dec 8.7 06:54:39 10° SE 13:28:59 37° E 15:45:04 10° ESE visible
25 Dec 10.7 18:26:30 10° WNW 19:40:26 15° WNW 21:37:23 10° WNW visible
